SCP
0 0 0 0 0 0 -0 -0 -0 -0 0 0 0 0 0 0 0 0 0 0 0 0
0 0 0 0 0 0 -0 -0 -0 0 0 0 0 0 0 0 0 0 0 0 0 0
0 0 0 0 0 0 0 -0 0 0 0 0 0 0 0 0 0 0 0 0 0 0
0 0 0 0 0 0 0 0 0 0 0 0 0 0 0 0 0 0 0 0 0 0
0 0 0 0 0 0 -0 0 0 0 0 0 0 0 0 0 0 0 0 0 0 0
0 0 0 0 0 0 0 0 0 0 0 0 0 0 0 0 0 0 0 0 0 0
0 0 0 0 -0 0 0 -0 -0 0 0 0 0 0 0 0 0 0 0 0 0 0
0 -0 -0 -0 -0 -0 -0 0 -0 -0 -0 0 0 0 0 0 0 0 0 0 0 0
0 -0 -0 -0 -0 -0 -0 -0 -0 -0 -0 0 0 0 0 0 0 0 0 0 0 0
0 -0 -0 -0 -0 0 -0 -0 0 0 0 0 0 0 0 0 0 0 0 0 0 0
0 0 -0 -0 -0 0 -0 0 0 0 0 -0 0 -0 -0 0 0 0 0 0 0 0
-0 0 0 -0 0 0 -0 0 0 0 0 0 0 -0 0 0 0 0 0 0 0 0
-0 0 0 0 0 0 0 0 0 0 0 0 0 0 0 0 0 0 0 0 0 -0
-0 0 0 0 0 0 0 0 0 0 -0 0 0 0 0 0 0 -0 -0 -0 0 0
Wind_Speed_500mb
9 11 14 16 12 2 9 15 19 18 11 12 13 11 9 14 20 16 20 22 29 26
6 11 12 15 13 6 12 17 22 19 12 10 10 8 8 13 15 11 17 16 20 18
4 11 11 12 13 8 12 19 21 20 15 9 8 7 9 9 9 10 17 13 14 19
3 9 8 7 5 6 11 17 18 20 16 9 8 8 8 10 11 11 13 11 12 19
4 6 4 5 6 6 14 17 16 14 15 13 9 10 11 13 14 12 13 15 18 20
1 2 4 6 11 12 13 17 17 17 17 18 17 20 21 20 20 23 21 19 20 20
1 4 5 16 16 16 18 23 21 22 24 23 22 19 18 19 19 19 21 21 25 29
11 9 11 24 23 24 25 23 23 26 27 24 20 22 22 24 19 17 19 21 26 25
18 16 18 24 26 25 23 22 23 23 22 21 21 18 15 8 6 6 15 23 26 29
25 21 20 25 25 23 19 19 20 19 16 16 18 18 16 9 6 14 27 27 32 34
30 23 24 24 22 21 19 20 18 16 13 17 21 21 19 13 26 26 29 30 35 37
30 29 27 22 18 15 13 19 20 17 19 21 30 26 22 29 29 37 35 36 44 41
36 33 26 22 19 16 14 19 22 21 25 28 36 33 33 33 36 35 39 53 61 57
41 37 28 26 23 20 15 19 21 23 25 28 27 32 30 30 33 35 45 45 44 46
Wind_Direction_500mb
352 354 340 343 351 1 160 171 168 157 144 140 115 116 140 177 184 187 211 198 197 218
18 359 356 11 21 87 143 162 168 161 159 152 137 118 132 165 178 213 198 193 205 200
341 357 16 37 50 81 129 156 162 168 167 155 149 120 136 155 179 182 183 193 196 193
311 349 7 36 79 88 145 157 160 170 175 167 153 135 117 128 139 159 164 159 140 160
254 339 4 32 118 90 146 153 158 172 177 164 141 120 105 109 111 133 138 145 144 150
202 21 31 85 122 120 125 144 146 140 143 136 121 108 102 103 103 103 106 114 147 147
86 90 61 123 122 126 123 129 129 127 132 131 121 110 110 109 102 97 101 116 136 143
140 100 104 126 121 119 121 124 125 126 130 128 125 120 112 105 99 92 95 121 133 129
148 108 115 129 122 119 124 127 132 130 126 131 132 140 146 139 99 124 136 133 132 150
150 125 118 132 123 116 127 139 138 138 136 144 146 151 154 138 115 136 142 140 137 148
165 152 129 128 124 116 123 140 150 142 145 150 155 153 148 127 128 122 131 144 145 154
181 173 165 152 132 118 117 136 144 143 120 141 139 135 141 130 119 123 124 144 148 154
185 180 172 163 157 137 123 133 135 140 124 125 120 125 124 128 133 132 123 130 133 140
192 188 179 172 168 159 133 142 136 145 144 141 132 127 133 129 138 140 140 140 142 147
Wind_Speed_850mb
9 11 14 16 12 2 9 15 19 18 11 12 13 11 9 14 20 16 20 22 29 26
6 11 12 15 13 6 12 17 22 19 12 10 10 8 8 13 15 11 17 16 20 18
4 11 11 12 13 8 12 19 21 20 15 9 8 7 9 9 9 10 17 13 14 19
3 9 8 7 5 6 11 17 18 20 16 9 8 8 8 10 11 11 13 11 12 19
4 6 4 5 6 6 14 17 16 14 15 13 9 10 11 13 14 12 13 15 18 20
1 2 4 6 11 12 13 17 17 17 17 18 17 20 21 20 20 23 21 19 20 20
1 4 5 16 16 16 18 23 21 22 24 23 22 19 18 19 19 19 21 21 25 29
11 9 11 24 23 24 25 23 23 26 27 24 20 22 22 24 19 17 19 21 26 25
18 16 18 24 26 25 23 22 23 23 22 21 21 18 15 8 6 6 15 23 26 29
25 21 20 25 25 23 19 19 20 19 16 16 18 18 16 9 6 14 27 27 32 34
30 23 24 24 22 21 19 20 18 16 13 17 21 21 19 13 26 26 29 30 35 37
30 29 27 22 18 15 13 19 20 17 19 21 30 26 22 29 29 37 35 36 44 41
36 33 26 22 19 16 14 19 22 21 25 28 36 33 33 33 36 35 39 53 61 57
41 37 28 26 23 20 15 19 21 23 25 28 27 32 30 30 33 35 45 45 44 46
Wind_Direction_850mb
352 354 340 343 351 1 160 171 168 157 144 140 115 116 140 177 184 187 211 198 197 218
18 359 356 11 21 87 143 162 168 161 159 152 137 118 132 165 178 213 198 193 205 200
341 357 16 37 50 81 129 156 162 168 167 155 149 120 136 155 179 182 183 193 196 193
311 349 7 36 79 88 145 157 160 170 175 167 153 135 117 128 139 159 164 159 140 160
254 339 4 32 118 90 146 153 158 172 177 164 141 120 105 109 111 133 138 145 144 150
202 21 31 85 122 120 125 144 146 140 143 136 121 108 102 103 103 103 106 114 147 147
86 90 61 123 122 126 123 129 129 127 132 131 121 110 110 109 102 97 101 116 136 143
140 100 104 126 121 119 121 124 125 126 130 128 125 120 112 105 99 92 95 121 133 129
148 108 115 129 122 119 124 127 132 130 126 131 132 140 146 139 99 124 136 133 132 150
150 125 118 132 123 116 127 139 138 138 136 144 146 151 154 138 115 136 142 140 137 148
165 152 129 128 124 116 123 140 150 142 145 150 155 153 148 127 128 122 131 144 145 154
181 173 165 152 132 118 117 136 144 143 120 141 139 135 141 130 119 123 124 144 148 154
185 180 172 163 157 137 123 133 135 140 124 125 120 125 124 128 133 132 123 130 133 140
192 188 179 172 168 159 133 142 136 145 144 141 132 127 133 129 138 140 140 140 142 147